COSMOS 1823 DEB, 29359

Orbit data source: Space-Track

COSMOS 1823 DEB, 29359 is space debris in LEO originally from a launch on Fri, 20 Feb 1987 UTC launched from the Plesetsk Missile And Space Complex (PKMTR). Debris objects in space refer to the collection of defunct objects orbiting the Earth. Examples of debris include non-operational satellites, rocket bodies, and fragments generated from explosions, collisions, or faulty payload assembly.

Loading next visibility...
Identifier
29359, 1987-020EA
Orbit
LEO
Country
Flag of CISCIS
Related business
Manufacturer
Unknown
Mission
Spacecraft
Bus & Motor
Unknown
Mass
Unknown
Launch date (UTC)
1987-02-20 (39 years ago)
Launch vehicle
Unknown
Launch site
Plesetsk Missile And Space Complex (PKMTR)
Object type
Payload
Rocket body
Debris
Shape & HBR
Unknown shape, 0.1 m
Radar Cross Section
Medium (>0.1 m² and <1 m²)

Expand to show TLE details & history
Last TLE update: 4 days ago

TLE from 4 days ago
0 COSMOS 1823 DEB
1 29359U 87020EA  26169.95116111  .00000007  00000-0  17890-3 0  9999
2 29359  73.6164  62.3883 0030002 232.6740 146.8770 12.41129841529097
Epoch: 2026-06-18T22:49Z
TLE epoch observation values (Epoch: 2026-06-18T22:49:40.319Z)
Latitude
18.90888°
Longitude
178.53504°
Altitude
1,523.517 km
Speed
7.096 km/s
True Right ascension
04h 32m 33s
True Declination
18° 48' 50"
Sunlit
Object was in daylight at epoch
Visualization orbit readout
Latitude
Unknown
Longitude
Unknown
Altitude
Unknown
Speed
Unknown
Apparent Right ascension
Unknown
Apparent Declination
Unknown
Sunlit
N/A
Visualization observer readout
Local Sidereal Time
08:23:17
Azimuth
Unknown
Elevation
Unknown
Doppler factor
Unknown
Orbital elements
Apogee altitude
1,523.33 km
Perigee altitude
1,476.06 km
Semi-major axis
7,877.832 km
Eccentricity
0.003
Inclination
73.6164°
RAAN
62.3883°
Arg. of periapsis
232.674°
True anomaly
147.06428°
Mean anomaly
146.877°
Eccentric anomaly
146.9707°
Mean motion
3.10408 °/min
Orbital period
115.98 mins
BSTAR
0.0001789
Loading maneuver chart data...
Computing Atmospheric mass density...

Documentation

Showing up to 5 results
|